COSMOS 2251 DEB, 37316

Orbit data source: Space-Track

COSMOS 2251 DEB, 37316 is space debris in LEO originally from a launch on Wed, 16 Jun 1993 UTC launched from the Plesetsk Missile And Space Complex (PKMTR). The debris from Iridium 33, an American commercial communications satellite, has been tracked extensively since its accidental collision with the defunct Russian satellite Cosmos 2251 in 2009. This event, occurring at high speed in low Earth orbit (LEO), generated thousands of pieces of space debris, significantly increasing the risk of further collisions. The Iridium 33 debris cloud has impacted space traffic management and orbital debris mitigation strategies, making it a subject of ongoing study in space situational awareness.

Loading next visibility...
Identifier
37316, 1993-036BKG
Orbit
LEO
Country
Flag of CISCIS
Related business
Manufacturer
Unknown
Mission
Spacecraft
Bus & Motor
Unknown
Mass
Unknown
Launch date (UTC)
1993-06-16 (32 years ago)
Launch vehicle
Unknown
Launch site
Plesetsk Missile And Space Complex (PKMTR)
Object type
Payload
Rocket body
Debris
Shape & HBR
Unknown shape, 0.1 m
Radar Cross Section
Small (<0.1 m²)

Expand to show TLE details & history
Last TLE update: 23 hours ago

TLE from 23 hours ago
0 COSMOS 2251 DEB
1 37316U 93036BKG 25299.47422692  .00025683  00000-0  25685-2 0  9996
2 37316  74.0185 116.1479 0037152 201.3878 158.5754 14.90832343854383
Epoch: 2025-10-26T11:22Z
TLE epoch observation values (Epoch: 2025-10-26T11:22:53.205Z)
Latitude
-0.00004°
Longitude
-89.6637°
Altitude
622.15 km
Speed
7.535 km/s
True Right ascension
07h 44m 35s
True Declination
0° 00' 00"
Sunlit
Object was in daylight at epoch
Visualization orbit readout
Latitude
Unknown
Longitude
Unknown
Altitude
Unknown
Speed
Unknown
Apparent Right ascension
Unknown
Apparent Declination
Unknown
Sunlit
N/A
Visualization observer readout
Local Sidereal Time
06:06:20
Azimuth
Unknown
Elevation
Unknown
Doppler factor
Unknown
Orbital elements
Apogee altitude
618.803 km
Perigee altitude
567.005 km
Semi-major axis
6,971.041 km
Eccentricity
0.00372
Inclination
74.0185°
RAAN
116.1479°
Arg. of periapsis
201.3878°
True anomaly
158.73024°
Mean anomaly
158.5754°
Eccentric anomaly
158.65289°
Mean motion
3.72904 °/min
Orbital period
96.54 mins
BSTAR
0.0025685
Loading maneuver chart data...
Computing Atmospheric mass density...

Documentation

Showing up to 5 results
|